EDT,Max TemperatureF,Mean TemperatureF,Min TemperatureF,Max Dew PointF,MeanDew PointF,Min DewpointF,Max Humidity, Mean Humidity, Min Humidity, Max Sea Level PressureIn, Mean Sea Level PressureIn, Min Sea Level PressureIn, Max VisibilityMiles, Mean VisibilityMiles, Min VisibilityMiles, Max Wind SpeedMPH, Mean Wind SpeedMPH, Max Gust SpeedMPH,PrecipitationIn, CloudCover, Events, WindDirDegrees
2011-9-1,78,69,60,66,63,57,100,82,64,30.20,30.10,30.01,10,8,2,16,6,21,0.31,5,Rain-Thunderstorm,195
2011-9-2,82,73,64,70,66,63,94,84,58,30.08,30.03,29.97,8,5,0,9,4,,0.00,4,Fog,115
2011-9-3,88,76,64,73,67,63,100,86,53,30.02,29.98,29.89,10,3,0,10,3,,0.00,3,Fog,161
2011-9-4,77,72,64,70,66,64,97,87,71,29.98,29.88,29.82,10,6,2,12,5,21,0.18,4,Rain-Thunderstorm,219
2011-9-5,66,62,55,64,59,54,94,92,87,29.95,29.86,29.77,10,7,3,15,7,,0.53,8,Rain,339
2011-9-6,61,57,53,55,54,52,100,91,77,30.08,30.03,29.95,10,10,7,15,8,23,0.20,8,Rain,46
2011-9-7,66,60,55,61,58,54,100,91,81,30.04,29.99,29.94,10,9,2,17,10,23,0.56,8,Rain,96
2011-9-8,75,68,62,64,62,59,100,89,65,30.00,29.97,29.94,10,8,2,10,6,18,0.28,8,Rain,85
2011-9-9,70,66,62,67,64,60,100,92,83,29.96,29.93,29.88,10,8,1,12,4,22,0.24,7,Rain-Thunderstorm,89
2011-9-10,75,68,60,63,60,55,100,88,48,30.05,29.98,29.92,10,8,1,12,3,,0.06,7,Rain,296
2011-9-11,71,65,59,61,59,57,100,88,61,30.11,30.06,30.01,10,6,0,10,3,,0.01,6,Fog-Rain-Thunderstorm,171
2011-9-12,71,62,53,61,57,54,100,90,69,30.10,30.05,29.99,10,5,0,9,4,,0.00,4,Fog,226
2011-9-13,78,67,59,63,59,57,94,82,55,30.00,29.95,29.87,10,6,2,18,7,28,0.59,3,Rain-Thunderstorm,225
2011-9-14,73,66,59,63,60,54,94,84,53,30.00,29.95,29.88,10,7,2,10,5,,0.04,6,Rain-Thunderstorm,256
2011-9-15,57,50,42,53,45,35,96,83,50,30.27,30.07,29.95,10,8,2,16,6,25,0.26,6,Rain,336
2011-9-16,59,47,37,41,38,35,96,72,47,30.38,30.34,30.27,10,10,10,9,3,,0.00,2,,345
2011-9-17,61,52,44,44,42,39,90,72,45,30.40,30.37,30.34,10,10,10,13,6,20,0.00,2,,97
2011-9-18,64,54,44,46,44,42,93,72,45,30.42,30.36,30.29,10,10,10,10,7,16,0.00,2,,117
2011-9-19,64,55,46,55,50,43,100,80,63,30.28,30.14,30.04,10,9,4,12,8,22,0.27,5,Rain,147
2011-9-20,69,62,55,61,58,54,100,88,68,30.14,30.08,30.01,10,6,1,9,5,,0.24,7,Rain,243
2011-9-21,75,65,57,63,61,55,94,81,65,30.16,30.10,30.05,10,9,1,13,8,20,0.01,6,Rain,141
2011-9-22,73,67,61,64,62,59,96,87,70,30.13,30.09,30.03,10,7,1,9,4,,0.45,7,Rain,202
2011-9-23,69,62,57,64,60,55,100,93,83,30.13,30.01,29.89,10,4,0,10,6,,0.51,6,Fog-Rain,121
2011-9-24,69,60,51,57,53,50,100,82,61,30.11,30.07,29.99,10,10,2,8,3,,0.00,5,,307
2011-9-25,77,67,57,62,59,55,100,82,56,30.15,30.09,29.99,10,8,0,10,5,17,0.00,4,Fog,112
2011-9-26,77,70,62,63,62,60,94,78,60,30.00,29.95,29.86,10,9,6,13,8,21,0.00,4,,125
2011-9-27,73,67,62,64,61,56,94,84,59,29.94,29.90,29.86,10,9,1,10,5,16,0.60,7,Rain,196
2011-9-28,69,60,53,61,56,53,100,88,65,29.92,29.87,29.80,10,8,0,10,3,,0.06,7,Fog-Rain-Thunderstorm,152
2011-9-29,60,56,51,55,52,44,100,90,64,29.81,29.76,29.65,10,5,0,21,3,26,0.10,7,Fog-Rain,214
2011-9-30,57,50,44,54,48,42,94,85,74,29.76,29.67,29.61,10,10,3,18,11,29,0.06,8,Rain,237